CW8916 Weather Reports


time (UTC)temp
C
wind
direction
speed
KPH
gust
KPH
rain 1hr
cm
rain 24hr
cm
rain mn
cm
humidity
%
barometer
mb
20260505075629 15 180 22.5 40.2 0.00 0.00 0.00 50 1008.0
20260505074628 15 215 29.0 37.0 0.00 0.00 0.00 50 1008.1
20260505073628 15 223 29.0 51.5 0.00 0.00 0.00 49 1008.1
20260505072627 15 234 29.0 41.8 0.00 0.00 0.00 48 1008.0
20260505071630 15 235 35.4 45.1 0.00 0.00 0.00 50 1007.9
20260505070631 15 218 30.6 43.5 0.00 0.00 0.00 52 1008.2
20260505065622 15 207 32.2 43.5 0.00 0.00 0.00 50 1008.4
20260505064621 15 219 32.2 48.3 0.00 0.00 0.00 51 1008.4
20260505063619 16 229 22.5 45.1 0.00 0.00 0.00 48 1008.4
20260505062638 16 220 22.5 37.0 0.00 0.00 0.00 46 1008.2
20260505061617 16 187 24.1 46.7 0.00 0.00 0.00 48 1008.1
20260505060653 16 215 24.1 41.8 0.00 0.00 0.00 48 1008.1
20260505055615 17 221 29.0 48.3 0.00 0.00 0.00 45 1007.9
20260505054620 17 240 24.1 48.3 0.00 0.00 0.00 43 1007.8
20260505053627 17 229 25.7 40.2 0.00 0.00 0.00 40 1007.6
20260505052626 17 225 20.9 40.2 0.00 0.00 0.00 39 1007.6
20260505051625 16 198 17.7 33.8 0.00 0.00 0.00 42 1007.6
20260505050624 15 195 11.3 14.5 0.00 0.00 0.00 46 1007.6
20260505041614 16 145 4.8 14.5 0.00 0.00 0.00 43 1007.4
20260505040654 18 199 6.4 16.1 0.00 0.00 0.00 37 1007.3
20260505035646 18 217 9.7 17.7 0.00 0.00 0.00 37 1007.3
20260505034623 17 218 9.7 17.7 0.00 0.00 0.00 37 1007.1
20260505033621 17 217 11.3 14.5 0.00 0.00 0.00 38 1007.0
20260505032641 18 210 12.9 17.7 0.00 0.00 0.00 35 1006.8
20260505031621 17 227 9.7 17.7 0.00 0.00 0.00 38 1006.8
20260505030620 16 166 8.0 11.3 0.00 0.00 0.00 44 1006.7
20260505025629 16 167 8.0 16.1 0.00 0.00 0.00 46 1006.8
20260505024628 17 144 6.4 16.1 0.00 0.00 0.00 41 1006.7
20260505023625 17 211 9.7 11.3 0.00 0.00 0.00 43 1006.3
20260505022626 16 153 6.4 11.3 0.00 0.00 0.00 46 1006.3
20260505021625 17 143 6.4 9.7 0.00 0.00 0.00 42 1006.2
20260505020649 17 153 3.2 11.3 0.00 0.00 0.00 39 1006.1
20260505015623 17 204 4.8 11.3 0.00 0.00 0.00 38 1006.2
20260505014644 17 138 6.4 11.3 0.00 0.00 0.00 39 1006.2
20260505013621 18 122 4.8 9.7 0.00 0.00 0.00 38 1006.1
20260505012620 18 101 6.4 9.7 0.00 0.00 0.00 35 1006.2
20260505011621 19 56 4.8 14.5 0.00 0.00 0.00 32 1006.3
20260505010620 20 90 6.4 8.0 0.00 0.00 0.00 30 1006.4
20260505005627 20 244 4.8 16.1 0.00 0.00 0.00 29 1006.1
20260505004627 20 269 19.3 29.0 0.00 0.00 0.00 29 1006.3
20260505003651 20 314 29.0 40.2 0.00 0.00 0.00 28 1006.4
20260505002649 20 317 19.3 38.6 0.00 0.00 0.00 34 1006.7
20260505001626 20 312 25.7 41.8 0.00 0.00 0.00 34 1007.0
20260505000651 20 290 9.7 22.5 0.00 0.00 0.00 34 1006.8
20260504235620 20 360 22.5 33.8 0.00 0.00 0.00 34 1006.7
20260504234640 21 339 11.3 29.0 0.00 0.00 0.00 34 1006.7
20260504233638 22 336 22.5 38.6 0.00 0.00 0.00 28 1006.9
20260504232616 22 221 11.3 16.1 0.00 0.00 0.00 23 1006.6
20260504231616 23 229 9.7 14.5 0.00 0.00 0.00 24 1006.4
20260504230620 22 267 6.4 17.7 0.00 0.00 0.00 25 1006.5
20260504225627 22 300 16.1 20.9 0.00 0.00 0.00 25 1006.4
20260504224626 22 299 11.3 19.3 0.00 0.00 0.00 24 1006.4
20260504223626 22 291 8.0 11.3 0.00 0.00 0.00 27 1006.3
20260504222626 22 103 3.2 14.5 0.00 0.00 0.00 27 1006.3
20260504221625 21 270 9.7 14.5 0.00 0.00 0.00 34 1006.4
20260504220624 22 209 9.7 22.5 0.00 0.00 0.00 26 1006.5
20260504215637 23 127 8.0 16.1 0.00 0.00 0.00 26 1006.7
20260504214640 22 192 8.0 16.1 0.00 0.00 0.00 26 1006.9
20260504213619 22 127 8.0 16.1 0.00 0.00 0.00 27 1007.1
20260504212618 22 153 4.8 12.9 0.00 0.00 0.00 28 1007.2
20260504211617 23 56 3.2 14.5 0.00 0.00 0.00 29 1007.6
20260504210616 23 196 8.0 24.1 0.00 0.00 0.00 30 1007.7
20260504205615 22 355 6.4 9.7 0.00 0.00 0.00 31 1007.6
20260504204614 22 320 8.0 12.9 0.00 0.00 0.00 32 1007.7
20260504203619 22 268 0.0 4.8 0.00 0.00 0.00 31 1007.8
20260504202620 21 200 3.2 9.7 0.00 0.00 0.00 32 1007.9
20260504201640 21 24 9.7 16.1 0.00 0.00 0.00 33 1007.9
20260504200620 21 20 9.7 16.1 0.00 0.00 0.00 34 1008.0
20260504195634 21 30 6.4 16.1 0.00 0.00 0.00 33 1008.2
20260504194634 21 19 6.4 14.5 0.00 0.00 0.00 35 1008.1
20260504193632 21 32 8.0 14.5 0.00 0.00 0.00 34 1008.5
20260504192615 21 24 6.4 14.5 0.00 0.00 0.00 35 1008.6
20260504191614 20 311 6.4 16.1 0.00 0.00 0.00 35 1008.7
20260504190634 20 12 8.0 17.7 0.00 0.00 0.00 36 1009.0
20260504185646 20 5 9.7 17.7 0.00 0.00 0.00 37 1009.4
20260504184626 19 39 9.7 16.1 0.00 0.00 0.00 39 1009.5
20260504183626 19 341 3.2 12.9 0.00 0.00 0.00 40 1009.7
20260504182625 19 355 6.4 12.9 0.00 0.00 0.00 39 1009.7
20260504181623 19 5 8.0 12.9 0.00 0.00 0.00 41 1010.0
20260504180620 18 19 4.8 12.9 0.00 0.00 0.00 42 1010.2
20260504175614 18 338 11.3 16.1 0.00 0.00 0.00 41 1010.2
20260504174637 18 343 8.0 12.9 0.00 0.00 0.00 41 1010.3
20260504173615 17 264 4.8 11.3 0.00 0.00 0.00 41 1010.4
20260504172633 17 355 6.4 8.0 0.00 0.00 0.00 40 1010.5
20260504171632 17 304 1.6 9.7 0.00 0.00 0.00 41 1010.7
20260504170631 16 21 3.2 12.9 0.00 0.00 0.00 42 1010.7
20260504150615 12 328 3.2 8.0 0.00 0.00 0.00 46 1010.8
20260504140618 9 131 0.0 6.4 0.00 0.00 0.00 53 1011.2
20260504130632 8 70 3.2 6.4 0.00 0.00 0.00 52 1011.0
20260504110635 8 145 4.8 9.7 0.00 0.00 0.00 51 1010.5
20260504081615 11 136 6.4 14.5 0.00 0.00 0.00 41 1010.2
20260504080633 10 189 9.7 14.5 0.00 0.00 0.00 43 1010.3